1st Responders/1st Detectors/Storm Spotters Weather Summary for Jackson County, KY

Forecast Maps


Reg. NEXRAD Animation


National Fire Danger: Day 1 & 2 Map

Current NWS Watch/Warnings

SPC Convective Day 1 Outlook


Day 2 Outlook

(Click images to enlarge|Page will refresh every 5 minutes)
UK Ag. Weather Center Desktop Severe Weather Service[HERE]
Jackson County, KY Hazardous Weather Outlook Webcast
(9 AM to 9 PM Mon-Fri)
[Fast]
[Dial-up]


UKAWC 1st Detectors/1st Responders Precision Weather Forecast For JACKSON County, Kentucky
(based on the NWS County Digital Forecast)

ISSUED AT 19:00 UTC ON FRIDAY JAN 17 2020
DAY FRIDAY
EDT 3HR 4P 5P 6P 7P
MAX/MIN -- -- -- 40°
TEMP 40° 40° 40° 38°
SKY COVER 79% 82% 86% 90%
Clouds
DEW PT 16° 18° 18° 18°
RH 37% 39% 41% 43%
POP 12HR -- -- -- --
RAIN/SNOW (liq.equ) -- -- -- --
SNOWFALL -- -- -- --
WIND SPEED(MPH) 7 7 7 7
WIND Gust(MPH) 9 9 9 9
WIND DIR E E E E
DEW -- -- -- --
HeatIndex 35 35 34 32
Snow Showers -- -- -- --
Rain Showers -- -- -- --
WIND CHILL 35° 35° 35° 33°
SPRAY COND
DRY COND
LIVESTOCK COLDSTRESS



DAY SATURDAY SUNDAY MONDAY TUESDAY WEDNESDAY THURSDAY
EDT 6HR 8P 9P 10P 11P MIDN 1A 2A 3A 4A 5A 6A 7A 8A 9A 10A 11A NOON 1P 2P 3P 4P 5P 6P 7P 8P 9P 10P 11P MIDN 1A 2A 3A 5A 8A 11A 2P 5P 8P 2A 8A 2P 8P 2A 8A 2P 8P 2A 8A 2P 8P 2A 8A 2P 8P
MAX/MIN -- -- -- -- -- -- -- -- -- -- -- -- 34° -- -- -- -- -- -- -- -- -- -- 52° -- -- -- -- -- -- -- -- -- 22° -- -- 31° -- -- 14° 27° -- -- 16° 34° -- -- 18° 43° -- -- 27° 49° --
TEMP 36° 34° 34° 36° 36° 38° 38° 40° 40° 41° 40° 40° 40° 40° 41° 43° 45° 47° 49° 50° 52° 52° 50° 49° 47° 45° 43° 41° 38° 36° 34° 31° 27° 23° 23° 29° 31° 23° 18° 14° 25° 22° 20° 16° 31° 25° 20° 20° 41° 34° 29° 27° 47° 36°
SKY COVER 94% 95% 95% 94% 93% 91% 90% 93% 96% 98% 98% 98% 97% 97% 98% 99% 99% 99% 98% 97% 96% 95% 94% 91% 94% 89% 84% 78% 71% 65% 60% 60% 62% 58% 63% 33% 32% 25% 20% 43% 43% 37% 34% 21% 15% 13% 14% 16% 34% 64% 71% 71% 59% 69%
Clouds
DEW PT 18° 18° 18° 20° 20° 20° 22° 22° 22° 22° 23° 25° 27° 29° 32° 36° 38° 40° 40° 41° 41° 41° 41° 43° 43° 40° 38° 36° 32° 29° 25° 23° 20° 16° 14° 13° 11° 11° 11° 11° 13° 16° 16° 18° 22° 25°
RH 47% 51% 51% 52% 50% 49% 49% 48% 46% 46% 49% 54% 59% 64% 70% 72% 73% 73% 71% 71% 68% 65% 71% 77% 82% 82% 82% 79% 78% 72% 71% 71% 71% 71% 68% 50% 42% 54% 59% 63% 45% 53% 64% 76% 38% 54% 64% 70% 31% 47% 57% 68% 37% 64%
POP 12HR 9% -- -- -- -- -- -- -- -- -- -- -- 47% -- -- -- -- -- -- -- -- -- -- -- 91% -- -- -- -- -- -- -- -- 22% -- -- -- 9% -- 5% -- 5% -- 3% -- 3% -- 2% -- 1% -- 3% -- 3%
RAIN/SNOW (liq.equ) 0.00in -- -- -- -- -- 0.00in -- -- -- -- -- 0.02in -- -- -- -- -- 0.21in -- -- -- -- -- 0.11in -- -- -- -- -- 0.01in -- -- 0.00in -- 0.00in -- 0.00in 0.00in 0.00in -- -- -- -- -- -- -- -- -- -- -- -- -- --
SNOWFALL 0in -- -- -- -- -- 0in -- -- -- -- -- 0in -- -- -- -- -- 0in -- -- -- -- -- 0in -- -- -- -- -- 0in -- -- 0in -- 0in -- 0in 0in 0in -- -- -- -- -- -- -- -- -- -- -- -- -- --
WIND SPEED(MPH) 7 6 5 5 5 6 7 7 9 10 13 13 14 15 16 17 17 17 16 16 15 15 15 15 15 9 9 15 9 9 13 9 13 10 9 10 9 7 6 6 6 6 5 5 5 2 1 1 2 1 2 2 5 2
WIND DIR E E E E SE SE SE S S S S S S S S S S SW SW SW SW SW SW W W W W W W W W W W W W W W NW NW NW NW N N N N N E E S E S S S SE
HeatIndex 30 29 31 32 33 33 34 34 34 35 33 32 32 33 33 36 45 47 49 50 52 52 50 49 47 45 38 34 32 29 25 23 17 13 13 19 22 14 11 6 18 15 13 8 26 21 20 20 40 34 26 24 47 34
Snow Showers -- -- -- -- -- -- -- -- -- -- -- -- -- -- -- -- -- -- -- -- -- -- -- -- -- -- -- -- -- -- -- -- Chance Chance Chance -- -- -- -- -- -- -- -- -- -- -- -- -- -- -- -- -- -- --
Rain Showers -- -- -- -- -- -- -- -- Slight Chance Chance Chance Chance Likely Likely Likely Definite Definite Definite Definite Definite Likely Likely Chance Chance Slight Chance Slight Chance -- -- -- -- -- -- -- -- -- -- -- -- -- -- -- -- -- -- -- -- -- -- -- -- -- -- -- --
WIND CHILL 30° 29° 30° 32° 32° 34° 33° 35° 34° 35° 33° 33° 32° 32° 33° 35° 38° -- -- -- -- -- -- -- -- 40° 38° 33° 32° 29° 25° 23° 16° 13° 13° 20° 23° 15° 10° 18° 15° 14° 26° -- -- -- -- -- -- -- -- --
SPRAY COND
DRY COND
LIVESTOCK COLDSTRESS

Click on individual weather variable above in left-hand column (ie., TEMP, RH, QPF 12HR) to view state forecast maps






NWS 48 Hr. Forecast Maps,

Regional Hourly Observations For JACKSON County, Kentucky
Issued at 200 PM EST FRI JAN 17 2020
SOUTHEAST KENTUCKY
  
CITY           SKY/WX    TMP DP  RH WIND       PRES   REMARKS
JACKSON        FAIR      35  20  54 NE6       30.58F WCI  30          
LONDON         FAIR      37  20  50 E9        30.56F WCI  30          
SOMERSET       CLOUDY    36  18  48 E9        30.57F WCI  29          
MIDDLESBORO    FAIR      40  17  39 E3        30.57F                  
MONTICELLO     FAIR      38  21  50 CALM      30.56F                  


Current NOWCAST not available:
Nowcasts are not issued routinely during fair weather. Only when
precipitation or other significant weather is occuring in this county will these
forecasts be issued. Currently, there is no short term forecast in effect.


Fire Weather Forecast For JACKSON County, KY
Provided by the National Weather Service:

Issued at: Fri Jan 17 14:05:01 EST 2020

522 AM EST Fri Jan 17 2020

                      Today        Tonight      Sat          

Cloud Cover           Pcldy        Mcldy        Cloudy       
Chance precip (%)     0            40           90           
Precip type           None         rain         rain         
Temp (24H TREND)      40-45 (-3)   32-41 (+18)  49-54        
Rh % (24H TREND)      30-33 (-1)   50-78 (+1)   42-53        
20ftwnd-AM(mph)       NE 4-8                    S 12-16 G38  
20ftwnd-PM(mph)       E 3-7        SE 3-7       SW 11-15 G37 
Precip duration                    1            5            
Precip begin                                    Continuing   
Precip end                                      Continuing   
Precip amount         0.00         0.01         0.31         
LAL                   1            1            1            
Haines Index (MID)    4                         2            
Mixing hgt(ft-AGL)    1500                      800          
Transport wnd (mph)   E 12                      S 22         
Vent rate (kt-ft)     15056                     16079        
ADI Early             24 Fair      8 Poor       27 Fair      
ADI Late              22 Fair      24 Fair      24 Fair      
Max LVORI Early       3            2            3            
Max LVORI Late        2            2            4            

REMARKS...RANGES OF MIN T EXCEEDING 8 DEGREES & RANGES OF MAX RH        
EXCEEDING 10% INDICATE THE LIKELIHOOD OF THERMAL BELTS. ADI IS        
ATMOSPHERIC DISPERSION INDEX BY LAVDAS. DISPERSION INDEX IS        
MAGNITUDE OF VENT RATE DIVIDED BY 1000.


SPC's Fire Weather Web Tool (Excellent!), SPC's Fire Weather Outlooks, NWS Fire Weather WEB, Fire Danger Class Map,
Keetch-Byram Drought Index, ROMAN Web, Haines Index ,
WFAS's 10-hr Dead Fuel Moist., WFAS's 100-hr Dead Fuel Moist., Probablity of Ignition, Visual blackness Map, Palmer Drought Index, HPC's Rainfall Forecast Maps


Hazardous Weather Outlook For JACKSON County, Kentucky
436 AM EST Fri Jan 17 2020

 DAY ONE  Today and Tonight.

No hazardous weather is expected at this time.

 DAYS TWO THROUGH SEVEN  Saturday through Thursday.

Wind gusts of 30 to 40 mph will be possible at times from late 
Saturday morning into Saturday evening.

 SPOTTER INFORMATION STATEMENT  

Spotter activation is not anticipated.

Latest JACKSON County, Kentucky Watches, Warnings and Advisories.
Additional Drought Info.: UKAWC Drought Page, Kentucky Drought Watch


7-Day Forecast For JACKSON County, KY

THIS AFTERNOON
Mostly cloudy. Highs in the lower 40s. Light winds becoming east around 10 mph in the afternoon.

TONIGHT
Cloudy. A slight chance of rain showers late. A chance of rain showers near dawn. Lows in the mid 30s. Light winds becoming south around 10 mph late. Chance of rain 50 percent.

SATURDAY
Rain showers. Highs in the mid 50s. Southwest winds around 15 mph with gusts up to 30 mph. Chance of rain 90 percent.

SATURDAY NIGHT
Mostly cloudy. A slight chance of rain showers in the evening, then flurries possible late. Lows in the lower 20s. West winds around 10 mph. Gusts up to 25 mph in the evening. Chance of rain 20 percent.

SUNDAY
Cooler. Mostly sunny. Flurries possible in the morning. Highs in the lower 30s. West winds around 10 mph.

SUNDAY NIGHT
Mostly clear. Lows 15 to 20.

MARTIN LUTHER KING JR DAY
Mostly sunny. Highs in the upper 20s.

MONDAY NIGHT
Partly cloudy. Lows 15 to 20.

TUESDAY
Sunny. Highs in the mid 30s.

TUESDAY NIGHT
Mostly clear. Lows around 20.

WEDNESDAY
Mostly sunny. Highs in the mid 40s.

WEDNESDAY NIGHT
Mostly cloudy. Lows in the upper 20s.

THURSDAY
Partly sunny. Highs in the lower 50s.

Ag Weather Center, Department of Biosystems & Agricultural Engineering, University of Kentucky